Regional Weather Roundup
Issued by NWS Albany, NY

Home | Current Version | Previous Version | Text Only | Print | Product List | Glossary On
Versions: 1 2 3 4 5 6 7 8 9 10 11 12 13 14 15 16 17 18 19 20 21 22 23 24 25 26 27
000
ASUS41 KALY 301910
RWRALY

NEW YORK STATE HOURLY WEATHER ROUNDUP
NATIONAL WEATHER SERVICE ALBANY NY
300 PM EDT SAT APR 30 2016

NOTE: "FAIR" INDICATES FEW OR NO CLOUDS BELOW 12,000 FEET WITH NO
SIGNIFICANT WEATHER AND/OR NO OBSTRUCTIONS TO VISIBILITY.

NYZ032-033-038>043-046>054-057>066-NYZ062>081-082-084-302000-
EAST


CITY           SKY/WX    TMP DP  RH WIND       PRES   REMARKS
ALBANY         PTSUNNY   64  33  31 VRB3      30.17F
GLENS FALLS    SUNNY     63  29  27 SW6       30.16F
POUGHKEEPSIE   CLOUDY    63  41  44 W5        30.17S
NEWBURGH       CLOUDY    59  41  51 VRB6      30.19R
MONTGOMERY     CLOUDY    61  40  45 CALM      30.18R
WHITE PLAINS   MOSUNNY   62  34  35 E8        30.19S
ISLIP          PTSUNNY   55  39  54 S12       30.22R
NEW YORK CITY  PTSUNNY   62  31  31 VRB6G16   30.20R
CENTRAL PARK   SUNNY     62  33  33 W7        30.23R
$$

NYZ005>009-017-018-044>046-055-056-302000-
CENTRAL


CITY           SKY/WX    TMP DP  RH WIND       PRES   REMARKS
FULTON         SUNNY     65  31  28 N6        30.16F
SYRACUSE       PTSUNNY   63  37  38 VRB3      30.15F
ROME           MOSUNNY   62  38  40 CALM      30.16F
ELMIRA         CLOUDY    56  41  57 VRB3      30.17F
BINGHAMTON     CLOUDY    51  39  63 S6        30.17S
MONTICELLO     CLOUDY    54  39  58 CALM      30.21R
$$

NYZ026>034-041>043-087-302000-
NORTH


CITY           SKY/WX    TMP DP  RH WIND       PRES   REMARKS
WATERTOWN      SUNNY     63  25  23 VRB6G16   30.16F
FORT DRUM      NOT AVBL
MASSENA        SUNNY     58  20  22 NE5       30.23S
SARANAC LAKE   SUNNY     59  10  14 W7        30.14S
PLATTSBURGH    SUNNY     57  22  25 NE12      30.22F
$$

NYZ001>004-010>016-019>021-085-302000-
WEST


CITY           SKY/WX    TMP DP  RH WIND       PRES   REMARKS
NIAGARA FALLS  PTSUNNY   62  37  39 E6        30.14F
BUFFALO        PTSUNNY   59  39  47 E13       30.14F
DUNKIRK        PTSUNNY   58  42  55 N9        30.13F
JAMESTOWN      CLOUDY    54  41  62 E5        30.12S
WELLSVILLE     CLOUDY    51  40  65 SE6       30.16F
ROCHESTER      MOSUNNY   59  28  30 NE14      30.18S
PENN YAN       CLOUDY    56  41  57 SW5       30.18S
$$

             KEY
       WCI = WIND CHILL INDEX
       VSB = VISIBILITY
       HX  = HEAT INDEX
$$




USA.gov is the U.S. government's official web portal to all federal, state and local government web resources and services.